Change the Weather History Date:

Saturday, October 6, 2012

  Actual Average Record
Temperature  
Mean Temperature 30 °F 49 °F  
Max Temperature 39 °F 62 °F 87 °F (1975)
Min Temperature 20 °F 35 °F 15 °F (2000)
Degree Days  
Heating Degree Days 35 16  
Month to date heating degree days 133 92  
Since 1 July heating degree days 291 387  
Cooling Degree Days 0 0  
Month to date cooling degree days 0 0  
Year to date cooling degree days 795 500  
Moisture  
Dew Point 24 °F    
Average Humidity 69    
Maximum Humidity 100    
Minimum Humidity 37    
Precipitation  
Precipitation T in 0.05 in 1.00 in (1962)
Month to date precipitation 0.16 0.29  
Year to date precipitation 7.74 11.96  
Sea Level Pressure  
Sea Level Pressure 30.36 in    
Wind  
Wind Speed 6 mph (NNW)    
Max Wind Speed 15 mph    
Max Gust Speed 18 mph    
Visibility 9 miles    
Events Snow    
T = Trace of Precipitation, MM = Missing Value Source: NWS Daily Summary

Daily Weather History Graph

Daily Weather History Graph

Search for Another Location

Airport or City:

Trip Planner

Search our weather history database for the weather conditions in past years. The results will help you decide how hot, cold, wet, or windy it might be!

Date:

Astronomy

Oct. 06, 2012 Rise Set
Actual Time 7:06 AM MDT 6:32 PM MDT
Civil Twilight 6:37 AM MDT 7:01 PM MDT
Nautical Twilight 6:04 AM MDT 7:35 PM MDT
Astronomical Twilight 5:30 AM MDT 8:09 PM MDT
Moon 10:40 PM MDT (10/6) 1:13 PM MDT (10/6)
Length of Visible Light 12h 24m
Length of Day
11h 26m
Waning Gibbous, 65% of the Moon is Illuminated
Oct 6
Waning Gibbous
Oct 8
Last Quarter
Oct 15
New
Oct 21
First Quarter
Oct 29
Full

Hourly Weather History & Observations

Time (MDT) Temp. Windchill Dew Point Humidity Pressure Visibility Wind Dir Wind Speed Gust Speed Precip Events Conditions
12:15 AM 30.2 °F 23.4 °F 30.2 °F 100% 30.34 in 4.0 mi NNE 6.9 mph - N/A   Overcast
12:27 AM 30.2 °F 23.4 °F 30.2 °F 100% 30.34 in 2.0 mi North 6.9 mph - 0.00 in Snow Light Snow
12:34 AM 30.2 °F 22.6 °F 30.2 °F 100% 30.34 in 3.0 mi North 8.1 mph - N/A Snow Light Snow
12:53 AM 30.0 °F 24.1 °F 30.0 °F 100% 30.41 in 8.0 mi North 5.8 mph - 0.00 in   Overcast
1:02 AM 30.2 °F 22.6 °F 30.2 °F 100% 30.34 in 4.0 mi North 8.1 mph - N/A   Overcast
1:53 AM 30.0 °F 20.5 °F 28.0 °F 92% 30.43 in 10.0 mi NNE 11.5 mph - 0.00 in   Overcast
2:03 AM 30.2 °F 19.8 °F 28.4 °F 93% 30.35 in 8.0 mi NE 13.8 mph - 0.00 in Snow Light Snow
2:20 AM 28.4 °F 18.5 °F 26.6 °F 93% 30.35 in 10.0 mi NNE 11.5 mph - 0.00 in   Overcast
2:53 AM 28.9 °F 20.4 °F 27.0 °F 92% 30.43 in 10.0 mi NNE 9.2 mph - 0.00 in   Overcast
3:33 AM 28.4 °F 20.4 °F 26.6 °F 93% 30.35 in 10.0 mi North 8.1 mph - N/A   Overcast
3:53 AM 28.4 °F 21.2 °F 26.6 °F 93% 30.35 in 10.0 mi NNE 6.9 mph - N/A   Overcast
4:09 AM 28.4 °F 21.2 °F 26.6 °F 93% 30.35 in 10.0 mi North 6.9 mph - N/A   Overcast
4:14 AM 28.4 °F 22.2 °F 26.6 °F 93% 30.35 in 10.0 mi North 5.8 mph - N/A   Overcast
4:16 AM 28.4 °F 21.2 °F 26.6 °F 93% 30.35 in 10.0 mi North 6.9 mph - N/A   Overcast
4:53 AM 28.0 °F 20.0 °F 26.1 °F 92% 30.45 in 10.0 mi North 8.1 mph - N/A   Overcast
5:01 AM 28.4 °F 22.2 °F 26.6 °F 93% 30.36 in 10.0 mi North 5.8 mph - N/A   Overcast
5:46 AM 24.8 °F 19.1 °F 24.8 °F 100% 30.36 in 10.0 mi North 4.6 mph - N/A   Scattered Clouds
5:53 AM 26.1 °F 20.5 °F 24.1 °F 92% 30.47 in 10.0 mi North 4.6 mph - N/A   Scattered Clouds
6:06 AM 26.6 °F 21.2 °F 26.6 °F 100% 30.36 in 10.0 mi North 4.6 mph - N/A   Mostly Cloudy
6:32 AM 24.8 °F - 23.0 °F 93% 30.37 in 10.0 mi Calm Calm - N/A   Mostly Cloudy
6:39 AM 24.8 °F - 23.0 °F 93% 30.36 in 10.0 mi Calm Calm - N/A   Partly Cloudy
6:53 AM 19.9 °F 14.9 °F 19.9 °F 100% 30.48 in 10.0 mi NW 3.5 mph - N/A   Clear
7:10 AM 19.4 °F 14.3 °F 19.4 °F 100% 30.36 in 10.0 mi NW 3.5 mph - N/A   Scattered Clouds
7:21 AM 21.2 °F - 19.4 °F 93% 30.36 in 10.0 mi Calm Calm - N/A   Mostly Cloudy
7:43 AM 24.8 °F - 24.8 °F 100% 30.36 in 9.0 mi Calm Calm - N/A   Overcast
7:53 AM 24.8 °F 19.1 °F 24.8 °F 100% 30.36 in 10.0 mi West 4.6 mph - N/A   Overcast
8:53 AM 25.0 °F - 25.0 °F 100% 30.48 in 10.0 mi Calm Calm - N/A   Mostly Cloudy
9:13 AM 26.6 °F - 24.8 °F 93% 30.37 in 10.0 mi Calm Calm - N/A   Partly Cloudy
9:53 AM 28.0 °F - 26.1 °F 92% 30.47 in 10.0 mi Calm Calm - N/A   Scattered Clouds
10:43 AM 30.2 °F - 24.8 °F 80% 30.37 in 10.0 mi Calm Calm - N/A   Mostly Cloudy
10:53 AM 32.0 °F - 26.1 °F 79% 30.45 in 10.0 mi Calm Calm - N/A   Mostly Cloudy
11:16 AM 32.0 °F - 24.8 °F 75% 30.37 in 10.0 mi Calm Calm - N/A   Scattered Clouds
11:23 AM 32.0 °F - 24.8 °F 75% 30.36 in 10.0 mi Calm Calm - N/A   Mostly Cloudy
11:46 AM 33.8 °F - 23.0 °F 65% 30.35 in 10.0 mi Calm Calm - N/A   Scattered Clouds
11:53 AM 33.1 °F 27.7 °F 25.0 °F 72% 30.44 in 10.0 mi SSW 5.8 mph - N/A   Scattered Clouds
12:19 PM 33.8 °F 29.6 °F 24.8 °F 70% 30.34 in 10.0 mi Variable 4.6 mph - N/A   Mostly Cloudy
12:53 PM 35.1 °F 29.3 °F 24.1 °F 64% 30.41 in 10.0 mi West 6.9 mph - N/A   Mostly Cloudy
1:53 PM 37.0 °F 32.4 °F 21.9 °F 54% 30.37 in 10.0 mi Variable 5.8 mph - N/A   Partly Cloudy
2:53 PM 37.0 °F 31.0 °F 21.9 °F 54% 30.36 in 10.0 mi WSW 8.1 mph - N/A   Partly Cloudy
3:53 PM 39.0 °F 32.8 °F 21.0 °F 49% 30.33 in 10.0 mi WSW 9.2 mph - N/A   Clear
4:53 PM 39.0 °F 36.8 °F 15.1 °F 38% 30.31 in 10.0 mi West 3.5 mph - N/A   Clear
5:53 PM 37.9 °F 32.7 °F 17.1 °F 43% 30.31 in 10.0 mi WSW 6.9 mph - N/A   Clear
6:53 PM 28.9 °F 22.8 °F 21.0 °F 72% 30.34 in 10.0 mi SW 5.8 mph - N/A   Clear
7:53 PM 24.1 °F - 19.9 °F 84% 30.33 in 10.0 mi Calm Calm - N/A   Clear
8:53 PM 24.8 °F 19.1 °F 19.4 °F 80% 30.21 in 10.0 mi South 4.6 mph - N/A   Clear
9:53 PM 26.1 °F - 19.0 °F 75% 30.32 in 10.0 mi Calm Calm - N/A   Clear
10:53 PM 28.4 °F 19.1 °F 19.4 °F 69% 30.18 in 10.0 mi SSW 10.4 mph - N/A   Clear
11:53 PM 30.0 °F 22.4 °F 17.1 °F 59% 30.25 in 10.0 mi SSW 8.1 mph - N/A   Clear